Cordoba, Spain

4:28 PM CET on March 23, 2017 (GMT +0100)
Cordoba

Weather History for LEBA - October, 2013

Change the Weather History Date:

Tuesday, October 1, 2013

  Actual Average Record
Temperature  
Mean Temperature 74 °F -  
Max Temperature 80 °F - - ()
Min Temperature 68 °F - - ()
Cooling Degree Days 10    
Growing Degree Days 24 (Base 50)    
Moisture  
Dew Point 67 °F    
Average Humidity 78    
Maximum Humidity 94    
Minimum Humidity 57    
Precipitation  
Precipitation 0.00 in 0.09 in - ()
Sea Level Pressure  
Sea Level Pressure 29.93 in    
Wind  
Wind Speed 5 mph ()    
Max Wind Speed 12 mph    
Max Gust Speed -    
Visibility 7.5 miles    
Events Rain    
T = Trace of Precipitation, MM = Missing Value Source: Averaged Metar Reports

Daily Weather History Graph

Daily Weather History Graph

Search for Another Location

Airport or City:

Trip Planner

Search our weather history database for the weather conditions in past years. The results will help you decide how hot, cold, wet, or windy it might be!

Date:

Astronomy

Oct. 01, 2013 Rise Set
Actual Time 8:14 AM CEST 8:02 PM CEST
Civil Twilight 7:48 AM CEST 8:28 PM CEST
Nautical Twilight 7:18 AM CEST 8:58 PM CEST
Astronomical Twilight 6:47 AM CEST 9:29 PM CEST
Moon 4:38 AM CEST (10/1) 5:55 PM CEST (10/1)
Length of Visible Light 12h 39m
Length of Day
11h 47m
Waning Crescent, 14% of the Moon is Illuminated
Oct 1
Waning Crescent
Oct 5
New
Oct 12
First Quarter
Oct 19
Full
Oct 27
Last Quarter

Hourly Weather History & Observations

Time (CEST) Temp. Dew Point Humidity Pressure Visibility Wind Dir Wind Speed Gust Speed Precip Events Conditions
2:00 AM 72 °F 69 °F 86% 29.92 in - SW 11.5 mph - -  
7:00 AM 69.8 °F 68.0 °F 94% 29.92 in 4.3 mi West 2.3 mph - N/A Rain Light Rain
8:00 AM 70 °F 69 °F 94% 29.92 in 4 mi SW 4.6 mph - - Rain Light Rain
8:00 AM 69.8 °F 68.0 °F 94% 29.92 in 4.3 mi WSW 3.5 mph - N/A   Mostly Cloudy
9:00 AM 69.8 °F 68.0 °F 94% 29.92 in 6.2 mi SW 3.5 mph - N/A   Mostly Cloudy
11:00 AM 71.6 °F 69.8 °F 94% 29.95 in 6.2 mi WSW 3.5 mph - N/A   Mostly Cloudy
12:00 PM 73.4 °F 69.8 °F 88% 29.95 in 6.2 mi WSW 8.1 mph - N/A   Light Drizzle
1:00 PM 75.2 °F 68.0 °F 78% 29.95 in 6.2 mi WSW 9.2 mph - N/A   Scattered Clouds
2:00 PM 78 °F 66 °F 58% 29.94 in 19 mi SW 11.5 mph - -   Partly Cloudy
2:00 PM 77.0 °F 66.2 °F 69% 29.95 in 6.2 mi WSW 11.5 mph - N/A   Scattered Clouds
3:00 PM 77.0 °F 64.4 °F 65% 29.95 in 6.2 mi WSW 10.4 mph - N/A   Scattered Clouds
4:00 PM 77.0 °F 64.4 °F 65% 29.92 in 6.2 mi WSW 8.1 mph - N/A   Scattered Clouds
5:00 PM 78.8 °F 62.6 °F 57% 29.92 in 6.2 mi SW 6.9 mph - N/A   Partly Cloudy
6:00 PM 78.8 °F 64.4 °F 61% 29.92 in 6.2 mi SW 9.2 mph - N/A   Partly Cloudy
7:00 PM 77.0 °F 64.4 °F 65% 29.92 in 6.2 mi Variable 2.3 mph - N/A   Partly Cloudy
8:00 PM 75 °F 66 °F 65% 29.90 in 19 mi SW 2.3 mph - -   Scattered Clouds
8:00 PM 75.2 °F 66.2 °F 73% 29.89 in - SW 2.3 mph - N/A   Clear
9:00 PM 71.6 °F 66.2 °F 83% 29.92 in - Calm Calm - N/A   Clear
10:00 PM 69.8 °F 66.2 °F 88% 29.92 in - Variable 1.2 mph - N/A   Clear
11:00 PM 68.0 °F 64.4 °F 88% 29.92 in - SW 1.2 mph - N/A   Clear